Regional Weather Roundup
Issued by NWS

Home | Current Version | Previous Version | Graphics & Text | Print | Product List | Glossary On
Versions: 1 2 3 4 5 6 7 8 9 10 11 12 13 14 15 16 17 18 19 20 21 22 23 24 25 26 27 28 29 30 31 32 33 34 35 36 37 38 39 40 41 42 43 44 45 46 47 48 49 50
712
ASUS43 KIND 110759
RWRIN

WEATHER ROUNDUP FOR INDIANA
NATIONAL WEATHER SERVICE INDIANAPOLIS IN
300 AM EST SUN DEC 11 2016

NOTE: "FAIR" INDICATES FEW OR NO CLOUDS BELOW 12,000 FEET WITH NO
SIGNIFICANT WEATHER AND/OR OBSTRUCTIONS TO VISIBILITY.

* - STATION DOES NOT REPORT WEATHER SUCH AS PRECIPITATION OR FOG.

+ - STATION NOT QUALITY CONTROLLED BY THE NATIONAL WEATHER SERVICE.
    USE DATA WITH CAUTION...ESPECIALLY DEWPOINT AND RELATIVE
    HUMIDITY OBSERVATIONS.

INZ001>003-010>013-019-020-110900-
NORTHWEST INDIANA

CITY           SKY/WX    TMP DP  RH WIND       PRES   REMARKS
GARY /AIRPORT/ LGT SNOW  26  24  91 SE7       30.26F WCI  19
KNOX *+        CLOUDY    25  10  54 SE9       30.28S WCI  15
LA PORTE +     LGT SNOW  23  21  91 SE6       30.28S WCI  16
MONTICELLO +   LGT SNOW  25  21  84 SE5       30.27S WCI  19

$$

LMZ046-743>745-110900-
SOUTHERN LAKE MICHIGAN

STATION/POSITION TIME  TEMP    WIND        PRES    WAVE
                       AIR SEA DIR/SP/G            HT
                 (UTC) (F)     (DEG/KT/KT) (MB)    (FT)
BURNS HARBOR     0740   24     160/ 10/ 13 1025.1F

$$

INZ004-005-014>016-021>024-110900-
NORTH CENTRAL INDIANA

CITY           SKY/WX    TMP DP  RH WIND       PRES   REMARKS
GOSHEN         LGT SNOW  24  19  81 S8        30.30F WCI  15
PERU/GRISSOM   LGT SNOW  25  23  93 SE9       30.26F FOG     WCI  15
SOUTH BEND     LGT SNOW  23  21  92 SE9       30.29F FOG     WCI  13
WARSAW +       LGT SNOW  25  19  80 SE6       30.30S WCI  18

$$

INZ006>009-017-018-025>027-110900-
NORTHEAST INDIANA

CITY           SKY/WX    TMP DP  RH WIND       PRES   REMARKS
ANGOLA *+      CLOUDY    21  21 100 S7        30.30F WCI  13
FORT WAYNE     LGT SNOW  24  21  88 SE8       30.32F FOG     WCI  15
KENDALLVILLE + LGT SNOW  24  21  91 S8        30.30F WCI  14

$$

INZ028-029-035-036-043>045-051>053-110900-
WEST CENTRAL INDIANA

CITY           SKY/WX    TMP DP  RH WIND       PRES   REMARKS
CRAWFORDSVL +  CLOUDY    26  20  79 SE9       30.25F WCI  17
GREENCASTLE +  CLOUDY    28  21  74 SE8       30.26F WCI  20
LAFAYETTE      LGT SNOW  25  24  96 SE6       30.26F FOG     WCI  18
TERRE HAUTE    CLOUDY    30  17  58 SE10      30.27S WCI  21

$$

INZ030>032-037>040-046>048-054>057-064-065-110900-
CENTRAL INDIANA

CITY           SKY/WX    TMP DP  RH WIND       PRES   REMARKS
FRANKFORT +    CLOUDY    28  25  87 SE8       30.27F WCI  20
GREENWOOD *+   CLOUDY    29  20  69 SE7       30.29S WCI  22
INDIANAPOLIS   CLOUDY    28  19  69 SE10      30.26F WCI  19
-EAGLE CREEK   CLOUDY    28  20  71 SE7       30.27F WCI  21
KOKOMO +       FLURRIES  24  22  91 SE12      30.28F WCI  13
SHELBYVILLE    CLOUDY    29  20  69 SE10      30.29F WCI  20
ZIONSVILLE +   CLOUDY    26  22  85 SE6       30.27F WCI  19

$$

INZ033-034-041-042-049-050-058-059-110900-
EAST CENTRAL INDIANA

CITY           SKY/WX    TMP DP  RH WIND       PRES   REMARKS
MUNCIE         CLOUDY    26  22  84 SE7       30.30F WCI  18

$$

INZ060-061-067>069-081>083-085>088-110900-
SOUTHWEST INDIANA

CITY           SKY/WX    TMP DP  RH WIND       PRES   REMARKS
EVANSVILLE     CLOUDY    34  18  52 S6        30.28F WCI  29
HUNTINGBURG *+ CLOUDY    32  21  64 SE5       30.29S WCI  27

$$

INZ062-063-066-070>080-084-089>092-110900-
SOUTH CENTRAL AND SOUTHEAST INDIANA

CITY           SKY/WX    TMP DP  RH WIND       PRES   REMARKS
BLOOMINGTON    CLOUDY    29  18  63 SE8       30.26F WCI  21
MADISON *+     CLOUDY    32  19  59 E3        30.33F
SEYMOUR +      CLOUDY    32  19  59 E8        30.31F WCI  25

$$





USA.gov is the U.S. government's official web portal to all federal, state and local government web resources and services.